Location: Canet
(43.3261°N, 5.3723°E)
Time: 17:45:43
(UTC+00:00)

ERS-2 - Pass Details

Date: 24 January 2021
Orbit: 492 x 497 km, 98.6° (Epoch: 03 March)

Event Time Altitude Azimuth Distance (km) Brightness Sun altitude
Exits shadow 17:50:15 - 23° (NNE) 1,832 4.6 -12.8°
Reaches altitude 10° 17:50:35 10° 24° (NNE) 1,696 4.5 -12.9°
Maximum altitude 17:54:08 50° 101° (E) 638 2.3 -13.5°
Drops below altitude 10° 17:57:39 10° 178° (S) 1,680 4.9 -14.1°
Sets 17:59:45 0° 183° (S) 2,557 5.9 -14.5°
